World > North America > United States > Wisconsin

Glidden, Wisconsin Regional Weather

Lat: 46.13N, Lon: 90.58W
Wx Zone: WIZ003Web Search
Glidden Weather Warning NWS WEATHER ALERT FOR THE GLIDDEN, WI AREA - Issued: 854 PM CDT Sat Sep 26 2020 Glidden Weather Warning  

Helpful Tip: Type the letters wx in the search engine next time you need to find us.

Feedback
Glidden Weather Map
UTC Time: 9/27/2020, 02:53
Your Time:

Glidden, WI Regional Weather

Expires:202009270300;;420314
ASUS43 KMKX 270221
RWRWI 

WISCONSIN REGIONAL WEATHER ROUNDUP
NATIONAL WEATHER SERVICE MILWAUKEE/SULLIVAN WI
900 PM CDT SAT SEP 26 2020

NOTE: "FAIR" INDICATES FEW OR NO CLOUDS BELOW 12,000 FEET WITH NO
SIGNIFICANT WEATHER AND/OR OBSTRUCTIONS TO VISIBILITY.


WIZ003>005-009-010-017-018-270300-
NORTH CENTRAL WISCONSIN
  
CITY           SKY/WX    TMP DP  RH WIND       PRES   REMARKS
MANITOWISH WTR RAIN      53  53 100 E8        29.51F                  
ARBOR VITAE    CLOUDY    57  51  79 E6        29.51F                  
WOODRUFF       CLOUDY    57  51  79 E6        29.51F                  
RHINELANDER    LGT RAIN  55  53  93 N7G17     29.52R                  
EAGLE RIVER    LGT RAIN  55  55  99 E8        29.52F                  
LAND O LAKES   LGT RAIN  55  55 100 CALM      29.56R                  
PHILLIPS       RAIN      55  54  98 NE6       29.50F                  
TOMAHAWK       CLOUDY    59  57  92 NW7       29.51R                  
MEDFORD        MOCLDY    64  64 100 S7        29.48F                  
MERRILL        CLOUDY    66  65  97 S7        29.48S                  
$$
 

SKY/WX - Weather  TMP - Temperature  DP - Dew Point  RH - Relative Humidity
WIND - Wind Direction/Speed PRES - Barometric Pressure VSB - Visibility
WCI - Wind Chill Index E13G22 Wind - East Wind 13 mph/Gusts of 22 mph